Regional Weather Roundup
Issued by NWS

Home | Current Version | Previous Version | Text Only | Print | Product List | Glossary Off
Versions: 1 2 3 4 5 6 7 8 9 10 11 12 13 14 15 16 17 18 19 20 21 22 23 24 25 26 27 28 29 30 31 32 33 34 35 36 37 38 39 40 41 42 43 44 45 46 47 48 49 50

000
ASUS43 KFSD 192110
RWRSD

WEATHER ROUNDUP FOR SOUTH DAKOTA
NATIONAL WEATHER SERVICE SIOUX FALLS SD
400 PM CDT FRI SEP 19 2014

NOTE: "FAIR" INDICATES FEW OR NO CLOUDS BELOW 12,000 FEET WITH NO
SIGNIFICANT WEATHER AND/OR OBSTRUCTIONS TO VISIBILITY.


SDZ001>005-009-010-012>017-192200-
NORTHWEST AND NORTH CENTRAL SOUTH DAKOTA

CITY           SKY/WX    TMP DP  RH WIND       PRES   REMARKS
BUFFALO          N/A     80  45  28 W25G36    29.76R
FAITH            N/A     83  51  33 NW15G23   29.77R
MOBRIDGE       SUNNY     85  56  37 NW10      29.66S
$$

SDZ012>016-024>037-041>051-057-063-072>074-192200-
SOUTHWEST AND SOUTH CENTRAL SOUTH DAKOTA

CITY           SKY/WX    TMP DP  RH WIND       PRES   REMARKS
RAPID CTY ARPT PTSUNNY   81  49  32 N14       29.83R
PIERRE         MOSUNNY   85  56  37 W12       29.69S
CUSTER         MOSUNNY   75  43  31 W8        29.97R
ELLSWORTH AFB  CLOUDY    80  48  32 N8G18     29.83R
PHILIP         PTSUNNY   88  53  30 W5        29.74S
PINE RIDGE     MOSUNNY   85  55  35 W10       29.82F
WINNER         FAIR      89  53  29 NW10      29.75R
$$

SDZ004>011-016>023-039-040-192200-
NORTHEAST SOUTH DAKOTA

CITY           SKY/WX    TMP DP  RH WIND       PRES   REMARKS
ABERDEEN       MOSUNNY   83  65  54 W12       29.64S
WATERTOWN      CLOUDY    77  64  64 W10       29.67S
SISSETON         N/A     77  66  68 VRB7      29.61R
$$

SDZ017-020-022-023-036>040-048>070-192200-
SOUTHEAST SOUTH DAKOTA

CITY           SKY/WX    TMP DP  RH WIND       PRES   REMARKS
SIOUX FALLS    MOSUNNY   88  65  46 SW12G18   29.69S
HURON          PTSUNNY   84  62  47 W6        29.66S
CHAMBERLAIN    MOSUNNY   87  56  35 W9        29.71S
MITCHELL       PTSUNNY   86  65  49 W9        29.68S
YANKTON        SUNNY     90  64  43 SW20G25   29.69S
$$

ABBREVIATIONS USED IN REMARKS
   TC - TEMPERATURE IN CELSIUS
  WCI - WIND CHILL INDEX
   HX - HEAT INDEX
  VSB - VISIBILITY




USA.gov is the U.S. government's official web portal to all federal, state and local government web resources and services.